| time (UTC) | temp F | wind direction | speed MPH | gust MPH | rain 1hr in | rain 24hr in | rain mn in | humidity % | barometer mb |
| 20260904194835 | 52 | 336 | 0.0 | 0.0 | 0.00 | 0.00 | 0.00 | 93 | 1018.1 |
| 20260904193314 | 52 | 336 | 0.0 | 0.0 | 0.00 | 0.00 | 0.00 | 93 | 1018.1 |
| 20260904191812 | 52 | 336 | 0.0 | 0.0 | 0.00 | 0.00 | 0.00 | 92 | 1090.3 |
| 20260904190329 | 53 | 336 | 0.0 | 0.0 | 0.00 | 0.00 | 0.00 | 93 | 469.6 |
| 20260904184829 | 52 | 336 | 0.0 | 0.0 | 0.00 | 0.00 | 0.00 | 92 | 518.5 |
| 20260904183325 | 53 | 336 | 0.0 | 0.0 | 0.00 | 0.00 | 0.00 | 92 | 930.7 |
| 20260904181822 | 53 | 336 | 0.0 | 0.0 | 0.00 | 0.00 | 0.00 | 92 | 1017.8 |
| 20260904180324 | 53 | 336 | 0.0 | 0.0 | 0.00 | 0.00 | 0.00 | 92 | 1017.8 |
| 20260904174821 | 53 | 336 | 0.0 | 0.0 | 0.00 | 0.00 | 0.00 | 92 | 1017.9 |
| 20260904173323 | 53 | 336 | 0.0 | 0.0 | 0.00 | 0.00 | 0.00 | 92 | 1017.8 |
| 20260904171842 | 53 | 336 | 0.0 | 0.0 | 0.00 | 0.00 | 0.00 | 92 | 1017.8 |
| 20260904170318 | 53 | 336 | 0.0 | 0.0 | 0.00 | 0.00 | 0.00 | 92 | 1089.6 |
| 20260904164820 | 53 | 336 | 0.0 | 0.0 | 0.00 | 0.00 | 0.00 | 92 | 1017.9 |
| 20260904163315 | 53 | 336 | 0.0 | 0.0 | 0.00 | 0.00 | 0.00 | 92 | 1018.0 |
| 20260904161812 | 53 | 260 | 0.0 | 0.0 | 0.00 | 0.00 | 0.00 | 92 | 1018.5 |
| 20260904160333 | 53 | 260 | 0.0 | 0.0 | 0.00 | 0.00 | 0.00 | 92 | 1018.5 |
| 20260904154810 | 53 | 260 | 0.0 | 0.0 | 0.00 | 0.00 | 0.00 | 92 | 1018.7 |
| 20260904153310 | 54 | 260 | 0.0 | 0.0 | 0.00 | 0.00 | 0.00 | 92 | 1018.7 |
| 20260904151827 | 54 | 260 | 0.0 | 0.0 | 0.00 | 0.00 | 0.00 | 92 | 1018.7 |
| 20260904150324 | 54 | 260 | 0.0 | 0.0 | 0.00 | 0.00 | 0.00 | 92 | 1018.9 |
| 20260904144825 | 54 | 260 | 0.0 | 0.0 | 0.00 | 0.00 | 0.00 | 92 | 1018.9 |
| 20260904143343 | 54 | 260 | 0.0 | 0.0 | 0.00 | 0.00 | 0.00 | 92 | 1019.3 |
| 20260904141819 | 54 | 260 | 0.0 | 0.0 | 0.00 | 0.00 | 0.00 | 91 | 1019.4 |
| 20260904140320 | 54 | 260 | 0.0 | 0.0 | 0.00 | 0.00 | 0.00 | 91 | 1019.3 |
| 20260904134817 | 54 | 260 | 0.0 | 1.0 | 0.00 | 0.00 | 0.00 | 91 | 1019.3 |
| 20260904133318 | 55 | 260 | 0.0 | 2.0 | 0.00 | 0.00 | 0.00 | 91 | 1019.3 |
| 20260904131815 | 55 | 260 | 0.0 | 0.0 | 0.00 | 0.00 | 0.00 | 91 | 1019.3 |
| 20260904130312 | 55 | 260 | 0.0 | 0.0 | 0.00 | 0.00 | 0.00 | 91 | 1019.1 |
| 20260904124815 | 55 | 260 | 0.0 | 0.0 | 0.00 | 0.00 | 0.00 | 91 | 1019.2 |
| 20260904123311 | 56 | 260 | 0.0 | 0.0 | 0.00 | 0.00 | 0.00 | 91 | 1019.2 |
| 20260904121813 | 56 | 260 | 0.0 | 0.0 | 0.00 | 0.00 | 0.00 | 91 | 1019.2 |
| 20260904120312 | 56 | 260 | 0.0 | 0.0 | 0.00 | 0.00 | 0.00 | 91 | 1019.2 |
| 20260904114812 | 56 | 260 | 0.0 | 0.0 | 0.00 | 0.00 | 0.00 | 91 | 1019.3 |
| 20260904113316 | 57 | 260 | 0.0 | 0.0 | 0.00 | 0.00 | 0.00 | 90 | 1019.2 |
| 20260904111817 | 57 | 260 | 0.0 | 0.0 | 0.00 | 0.00 | 0.00 | 90 | 1019.2 |
| 20260904110318 | 57 | 260 | 0.0 | 0.0 | 0.00 | 0.00 | 0.00 | 90 | 1019.2 |
| 20260904104823 | 57 | 260 | 0.0 | 0.0 | 0.00 | 0.00 | 0.00 | 90 | 1019.2 |
| 20260904103324 | 58 | 260 | 0.0 | 0.0 | 0.00 | 0.00 | 0.00 | 90 | 764.8 |
| 20260904101829 | 58 | 260 | 0.0 | 0.0 | 0.00 | 0.00 | 0.00 | 90 | 1038.2 |
| 20260904100328 | 58 | 260 | 0.0 | 0.0 | 0.00 | 0.00 | 0.00 | 89 | 965.6 |
| 20260904094825 | 59 | 260 | 0.0 | 0.0 | 0.00 | 0.00 | 0.00 | 89 | 1018.6 |
| 20260904093328 | 59 | 260 | 0.0 | 0.0 | 0.00 | 0.00 | 0.00 | 89 | 1039.5 |
| 20260904091825 | 60 | 260 | 0.0 | 0.0 | 0.00 | 0.00 | 0.00 | 89 | 1018.6 |
| 20260904090348 | 60 | 260 | 0.0 | 0.0 | 0.00 | 0.00 | 0.00 | 88 | 523.7 |
| 20260904084825 | 60 | 260 | 0.0 | 0.0 | 0.00 | 0.00 | 0.00 | 88 | 1089.5 |
| 20260904083321 | 61 | 260 | 0.0 | 0.0 | 0.00 | 0.00 | 0.00 | 87 | 1018.3 |
| 20260904081823 | 61 | 260 | 0.0 | 0.0 | 0.00 | 0.00 | 0.00 | 86 | |
| 20260904080321 | 62 | 229 | 0.0 | 0.0 | 0.00 | 0.00 | 0.00 | 85 | 899.5 |
| 20260904074817 | 63 | 155 | 0.0 | 0.0 | 0.00 | 0.00 | 0.00 | 83 | 1017.9 |
| 20260904073319 | 64 | 155 | 0.0 | 0.0 | 0.00 | 0.00 | 0.00 | 83 | 1038.9 |
| 20260904071816 | 64 | 134 | 0.0 | 2.0 | 0.00 | 0.00 | 0.00 | 82 | 1017.6 |
| 20260904070318 | 65 | 138 | 1.0 | 3.0 | 0.00 | 0.00 | 0.00 | 82 | 1017.3 |
| 20260904064812 | 65 | 163 | 1.0 | 2.0 | 0.00 | 0.00 | 0.00 | 81 | 5.1 |
| 20260904063330 | 66 | 167 | 0.0 | 3.0 | 0.00 | 0.00 | 0.00 | 80 | 793.0 |
| 20260904061812 | 66 | 139 | 2.0 | 4.0 | 0.00 | 0.00 | 0.00 | 79 | 1088.9 |
| 20260904060310 | 67 | 150 | 4.0 | 9.0 | 0.00 | 0.00 | 0.00 | 78 | 513.6 |
| 20260904054810 | 67 | 161 | 1.0 | 5.0 | 0.00 | 0.00 | 0.00 | 76 | 1088.3 |
| 20260904053329 | 67 | 145 | 4.0 | 8.0 | 0.00 | 0.00 | 0.00 | 77 | 1017.1 |
| 20260904051827 | 68 | 153 | 2.0 | 9.0 | 0.00 | 0.00 | 0.00 | 76 | 1017.3 |
| 20260904050328 | 68 | 156 | 2.0 | 6.0 | 0.00 | 0.00 | 0.00 | 74 | 811.6 |
| 20260904044826 | 68 | 159 | 2.0 | 3.0 | 0.00 | 0.00 | 0.00 | 73 | 1017.4 |
| 20260904043324 | 68 | 161 | 3.0 | 5.0 | 0.00 | 0.00 | 0.00 | 74 | 1017.5 |
| 20260904041826 | 69 | 153 | 3.0 | 7.0 | 0.00 | 0.00 | 0.00 | 72 | 1017.0 |
| 20260904040323 | 69 | 178 | 3.0 | 8.0 | 0.00 | 0.00 | 0.00 | 71 | 1017.1 |
| 20260904034847 | 69 | 169 | 2.0 | 11.0 | 0.00 | 0.00 | 0.00 | 71 | 1017.0 |
| 20260904033323 | 70 | 145 | 3.0 | 7.0 | 0.00 | 0.00 | 0.00 | 69 | 1017.1 |
| 20260904031818 | 71 | 146 | 5.0 | 10.0 | 0.00 | 0.00 | 0.00 | 70 | 513.4 |
| 20260904030319 | 70 | 142 | 2.0 | 9.0 | 0.00 | 0.00 | 0.00 | 68 | 1017.3 |
| 20260904024817 | 70 | 154 | 2.0 | 8.0 | 0.00 | 0.00 | 0.00 | 66 | 1017.6 |
| 20260904023313 | 71 | 152 | 4.0 | 7.0 | 0.00 | 0.00 | 0.00 | 65 | 1018.0 |
| 20260904021812 | 71 | 151 | 1.0 | 3.0 | 0.00 | 0.00 | 0.00 | 66 | 1018.1 |
| 20260904020310 | 70 | 116 | 2.0 | 8.0 | 0.00 | 0.00 | 0.00 | 66 | 1018.5 |
| 20260904014811 | 70 | 70 | 1.0 | 9.0 | 0.00 | 0.00 | 0.00 | 67 | 513.9 |
| 20260904013328 | 70 | 176 | 3.0 | 7.0 | 0.00 | 0.00 | 0.00 | 69 | 1018.9 |
| 20260904011826 | 70 | 156 | 3.0 | 5.0 | 0.00 | 0.00 | 0.00 | 68 | 919.6 |
| 20260904010347 | 71 | 159 | 2.0 | 5.0 | 0.00 | 0.00 | 0.00 | 65 | 967.8 |
| 20260904004825 | 70 | 151 | 3.0 | 6.0 | 0.00 | 0.00 | 0.00 | 68 | 515.9 |
| 20260904003321 | 70 | 152 | 3.0 | 8.0 | 0.00 | 0.00 | 0.00 | 71 | 655.3 |
| 20260904001822 | 70 | 142 | 4.0 | 7.0 | 0.00 | 0.00 | 0.00 | 70 | 586.7 |
| 20260904000320 | 70 | 173 | 4.0 | 8.0 | 0.00 | 0.00 | 0.00 | 72 | 901.3 |
| 20260903234821 | 69 | 166 | 4.0 | 11.0 | 0.00 | 0.00 | 0.00 | 73 | 8.3 |
| 20260903233318 | 68 | 154 | 3.0 | 10.0 | 0.00 | 0.00 | 0.00 | 74 | 396.7 |
| 20260903231814 | 68 | 131 | 4.0 | 8.0 | 0.00 | 0.00 | 0.00 | 74 | |
| 20260903230314 | 68 | 146 | 5.0 | 8.0 | 0.00 | 0.00 | 0.00 | 74 | 288.1 |
| 20260903224812 | 67 | 161 | 3.0 | 7.0 | 0.00 | 0.00 | 0.00 | 77 | 1020.5 |
| 20260903223333 | 65 | 159 | 2.0 | 5.0 | 0.00 | 0.00 | 0.00 | 78 | 486.1 |
| 20260903221829 | 64 | 174 | 1.0 | 2.0 | 0.00 | 0.00 | 0.00 | 80 | 701.5 |
| 20260903220326 | 63 | 161 | 1.0 | 3.0 | 0.00 | 0.00 | 0.00 | 84 | |
| 20260903214827 | 60 | 147 | 2.0 | 3.0 | 0.00 | 0.00 | 0.00 | 90 | 342.1 |
| 20260903213346 | 58 | 316 | 0.0 | 0.0 | 0.00 | 0.00 | 0.00 | 91 | 778.5 |
| 20260903211820 | 57 | 316 | 0.0 | 0.0 | 0.00 | 0.00 | 0.00 | 91 | 1043.1 |
| 20260903210322 | 56 | 316 | 0.0 | 0.0 | 0.00 | 0.00 | 0.00 | 91 | 1019.9 |
| 20260903204819 | 54 | 316 | 0.0 | 0.0 | 0.00 | 0.00 | 0.00 | 91 | 1019.6 |
| 20260903203320 | 54 | 316 | 0.0 | 0.0 | 0.00 | 0.00 | 0.00 | 91 | 973.6 |
| 20260903201817 | 54 | 316 | 0.0 | 1.0 | 0.00 | 0.00 | 0.00 | 90 | 459.3 |
| 20260903200314 | 54 | 316 | 1.0 | 2.0 | 0.00 | 0.00 | 0.00 | 90 | 1019.1 |